THORAD AGENA D DEB, 4822

Orbit data source: Space-Track

THORAD AGENA D DEB, 4822 is space debris in SSO originally from a launch on Wed, 08 Apr 1970 UTC launched from the Air Force Western Test Range (AFWTR). Debris objects in space refer to the collection of defunct objects orbiting the Earth. Examples of debris include non-operational satellites, rocket bodies, and fragments generated from explosions, collisions, or faulty payload assembly.

Loading next visibility...
Identifier
4822, 1970-025ED
Orbit
SSO
Country
Flag of USUS
Related business
Manufacturer
Unknown
Mission
Spacecraft
Bus & Motor
Unknown
Mass
Unknown
Launch date (UTC)
1970-04-08 (56 years ago)
Launch vehicle
Unknown
Launch site
Air Force Western Test Range (AFWTR)
Object type
Payload
Rocket body
Debris
Shape & HBR
Unknown shape, 0.1 m
Radar Cross Section
Medium (>0.1 m² and <1 m²)

Expand to show TLE details & history
Last TLE update: 13 hours ago

TLE from 13 hours ago
0 THORAD AGENA D DEB
1 04822U 70025ED  25292.30877655  .00009438  00000-0  46033-2 0  9993
2 04822  99.3863  86.0665 0050059  59.5245 301.0858 14.17615805756434
Epoch: 2025-10-19T07:24Z
TLE epoch observation values (Epoch: 2025-10-19T07:24:38.293Z)
Latitude
-0.00007°
Longitude
-53.12034°
Altitude
817.806 km
Speed
7.454 km/s
True Right ascension
05h 44m 15s
True Declination
0° 00' 00"
Sunlit
Object was in partial shadow at epoch
Visualization orbit readout
Latitude
Unknown
Longitude
Unknown
Altitude
Unknown
Speed
Unknown
Apparent Right ascension
Unknown
Apparent Declination
Unknown
Sunlit
N/A
Visualization observer readout
Local Sidereal Time
15:38:21
Azimuth
Unknown
Elevation
Unknown
Doppler factor
Unknown
Orbital elements
Apogee altitude
866.709 km
Perigee altitude
794.536 km
Semi-major axis
7,208.76 km
Eccentricity
0.00501
Inclination
99.3863°
RAAN
86.0665°
Arg. of periapsis
59.5245°
True anomaly
300.59296°
Mean anomaly
301.0858°
Eccentric anomaly
300.83954°
Mean motion
3.54611 °/min
Orbital period
101.52 mins
BSTAR
0.0046033
Loading maneuver chart data...
Computing Atmospheric mass density...

Documentation

Showing up to 5 results
|